SO-67 - Orbit

View from above orbital plane
View from above orbital plane
View from above satellite
View from above satellite

Ground track
Ground track

The orbit data is extracted from the following two-line orbital elements,

1 35870U 09049F   13144.91405069  .00007171  00000-0  27356-3 0   872
2 35870 097.1926 174.4928 0003579 063.2714 058.5058 15.26956875204709
Epoch (UTC): 24 May 2013 21:56:13
Eccentricity: 0.0003579
inclination: 97.1926°
perigee height: 482 km
apogee height: 487 km
right ascension of ascending node: 174.4928°
argument of perigee: 63.2714°
revolutions per day: 15.26956875
mean anomaly at epoch: 58.5058°
orbit number at epoch: 20470

The dashed part of the orbit path shows where the satellite is in the earth's shadow,  

Developed and maintained by Chris Peat, Heavens-Above GmbH. Please read the updated FAQ before sending e-mail. Imprint. DLR